This is the latest recevied weather packets stored in our database for station/object KK7MLS-13. If no packets are shown the sender has not sent any weather packets the latest 10 day(s).
| Time | Temp. | Humidity | Pressure | Rain* | Wind** | Luminosity | Snow |
|---|---|---|---|---|---|---|---|
| 1777873007 | 21.11° C | 47% | 1008.1 hPa | 0 mm | - | 0 W/m² | - |
| 1777872704 | 21.11° C | 48% | 1008 hPa | 0 mm | - | 0 W/m² | - |
| 1777872401 | 21.11° C | 49% | 1007.9 hPa | 0 mm | - | 0 W/m² | - |
| 1777872099 | 21.67° C | 49% | 1008.1 hPa | 0 mm | - | 0 W/m² | - |
| 1777871796 | 21.67° C | 47% | 1008.1 hPa | 0 mm | - | 0 W/m² | - |
| 1777871492 | 21.67° C | 47% | 1008.2 hPa | 0 mm | - | 0 W/m² | - |
| 1777871189 | 21.67° C | 47% | 1008 hPa | 0 mm | - | 0 W/m² | - |
| 1777870886 | 21.67° C | 46% | 1008.2 hPa | 0 mm | - | 0 W/m² | - |
| 1777870583 | 22.22° C | 47% | 1007.8 hPa | 0 mm | - | 0 W/m² | - |
| 1777870278 | 22.22° C | 46% | 1007.9 hPa | 0 mm | - | 0 W/m² | - |
| 1777869976 | 22.78° C | 45% | 1007.9 hPa | 0 mm | - | 0 W/m² | - |
| 1777869673 | 22.78° C | 45% | 1007.9 hPa | 0 mm | - | 0 W/m² | - |
| 1777869370 | 23.33° C | 44% | 1007.9 hPa | 0 mm | - | 0 W/m² | - |
| 1777869067 | 23.33° C | 42% | 1008 hPa | 0 mm | - | 0 W/m² | - |
| 1777868764 | 23.89° C | 42% | 1007.8 hPa | 0 mm | - | 0 W/m² | - |
| 1777868461 | 23.89° C | 41% | 1007.7 hPa | 0 mm | - | 0 W/m² | - |
| 1777868156 | 23.89° C | 39% | 1007.5 hPa | 0 mm | - | 0 W/m² | - |
| 1777867853 | 24.44° C | 42% | 1007.6 hPa | 0 mm | - | 0 W/m² | - |
| 1777867550 | 24.44° C | 40% | 1007.8 hPa | 0 mm | - | 0 W/m² | - |
| 1777867247 | 23.89° C | 41% | 1007.3 hPa | 0 mm | - | 0 W/m² | - |
| 1777866944 | 24.44° C | 43% | 1007.6 hPa | 0 mm | - | 0 W/m² | - |
| 1777866640 | 24.44° C | 44% | 1007.6 hPa | 0 mm | - | 0 W/m² | - |
| 1777866338 | 24.44° C | 43% | 1007.5 hPa | 0 mm | - | 0 W/m² | - |
| 1777866035 | 25° C | 40% | 1007.2 hPa | 0 mm | - | 0 W/m² | - |
| 1777865733 | 25° C | 40% | 1007.3 hPa | 0 mm | - | 0 W/m² | - |
* Rain latest hour (hover to see other rain measurements)
** Current wind speed in m/s (hover to see current wind gust speed)